Terug naar catalogus

CRRES DEB

CANISTER

ActiefHEO
NORAD 29530·DEBRIS·🇺🇸 United States

Gelanceerd Jul 25, 1990 vanaf Cape Canaveral Space Force Station

Loading…

Volgende Passages (komende 24 uur)

TLE

VersSource: Space-Track

Epoch: Sep 14, 2026, 14:36 UTC

1 29530U 90065X   26257.60895953  .00002021  00000-0  19912-2 0  9995
2 29530  18.0942  24.5359 7074770 128.5574 318.9624  2.50086365121380

Volg CRRES DEB in realtime met AllMySat

Download on the App Store